Regional Weather Roundup
Issued by NWS Midland/Odessa, TX

Home | Current Version | Previous Version | Text Only | Print | Product List | Glossary On
Versions: 1 2 3 4 5 6 7 8 9 10 11 12 13 14 15 16 17 18 19 20 21 22 23 24 25 26 27 28 29 30 31 32 33 34 35 36 37 38 39 40 41 42 43 44 45 46 47 48 49 50
000
ASUS44 KMAF 201710
RWRMAF
MIDLAND AREA WEATHER ROUNDUP
NATIONAL WEATHER SERVICE MIDLAND TX
1200 PM CDT FRI APR 20 2018

...IN SOUTHWEST TEXAS AND SOUTHEAST NEW MEXICO...

CITY           SKY/WX    TMP DP  RH WIND       PRES   REMARKS
ALPINE         SUNNY     74  48  39 S24G30    30.05S
ANDREWS        PTSUNNY   66  40  38 SE25G38   30.01F
ARTESIA        SUNNY     70  45  40 S30       29.88F
BIG SPRING     CLOUDY    63  37  37 SE28      30.09F
CARLSBAD       SUNNY     69  44  40 SE25G37   29.87F
DRYDEN           N/A     64  45  49 E22G31    30.04S
FORT STOCKTON  SUNNY     70  47  43 SE29G37   29.97S
GUAD PASS      NOT AVBL
HOBBS          SUNNY     68  43  40 SE35G43   29.94F
LAMESA         CLOUDY    63  36  36 SE33G41   30.07S
MARFA          MOSUNNY   71  50  47 MISG      30.04S
MIDLAND AIRPK    N/A     67  38  34 SE26G35   30.03F
MIDLAND INTL   CLOUDY    67  42  40 SE32G45   30.02F BLWGDUST
ODESSA         MOSUNNY   67  40  37 S24G38    30.02F
PECOS          SUNNY     77  47  34 E24G31    29.89F
PRESIDIO       FAIR      79  54  41 E6        29.96F
SEMINOLE       SUNNY     65  37  34 SE28G38   30.01F
SNYDER         CLOUDY    60  36  40 SE23G30   30.11F
WINK           SUNNY     72  47  40 SE29G38   29.93S
$$
...OTHER STATIONS IN TEXAS...

CITY           SKY/WX    TMP DP  RH WIND       PRES   REMARKS
ABILENE        CLOUDY    64  40  41 SE21G32   30.16F
AMARILLO       CLOUDY    52  31  44 SE30G39   30.06F
AUSTIN         CLOUDY    61  45  55 SE13      30.24F
BROWNSVILLE    CLOUDY    80  66  62 E14       30.14F
CORPUS CHRISTI CLOUDY    75  61  61 E21       30.18F
DALLAS FTW     PTSUNNY   61  33  35 E14       30.28F
DEL RIO        CLOUDY    63  51  65 E17G24    30.10F
EL PASO        MOSUNNY   70  17  13 W23G29    29.92R
HOUSTON INT    CLOUDY    61  43  51 E10       30.28F
LUBBOCK        CLOUDY    59  33  37 SE33G45   30.03F
SAN ANGELO     CLOUDY    66  38  35 SE22G30   30.13F
SAN ANTONIO    CLOUDY    63  49  60 E15       30.18F
WACO           CLOUDY    63  39  41 SE15      30.27F
WICHITA FALLS  CLOUDY    59  33  37 SE18      30.30F
$$
...OTHER LOCATIONS IN NEW MEXICO...

CITY           SKY/WX    TMP DP  RH WIND       PRES   REMARKS
ALAMOGORDO     MOSUNNY   70  10  10 W20G28    29.94R
ALBUQUERQUE    MOSUNNY   54  18  24 SW13G23   29.93S
CANNON AFB     SUNNY     60  36  40 S32G40    29.97F
CLOVIS         SUNNY     59  36  42 SE30G38   29.98F
HOLLOMAN AFB   NOT AVBL
ROSWELL        SUNNY     70  43  37 S24G37    29.88F
RUIDOSO        MOSUNNY   61  32  33 SW31G41   29.95F
SANTA FE       CLOUDY    51  16  24 SW20G25   29.91S
TRUTH OR CONSE SUNNY     66   0   7 W24G32    29.91S
TUCUMCARI      PTSUNNY   59  36  42 S26G39    29.92F
$$




USA.gov is the U.S. government's official web portal to all federal, state and local government web resources and services.